Weather in Norden

Germany     53°35′44″N   7°12′06″E
temp.,
°C
wind,
m/s
gust,
m/s
humid.,
%
clouds,
%
prec.,
mm/h
press.,
hPa
HPBL,
m
21 june, mon
mon2123:00+12n5987100 0.0 1010344
02:00+12nne5984100 0.0 1010396
05:00+13nne6980100 0.0 1009546
08:00+13nne71084100 0.2 1008579
11:00+12n71095100 3.7 1009574
14:00+12nne71195100 7.9 1010651
17:00+12n71193100 2.1 1011649
20:00+12n61088100 2.6 1013484
22 june, tue
tue2223:00+12n48886 0.0 1014295
02:00+12nnw478487 0.1 1015266
05:00+10nnw468647 0.0 1016147
08:00+13n45795 0.0 1017919
11:00+15nnw55670 0.0 10181157
14:00+15nnw5566100 0.0 10181127
17:00+15nnw5569100 0.0 1019922
20:00+13nnw467889 0.0 1020656
23 june, wed
wed2323:00+10nnw33875 0.0 102070
02:00+10n33852 0.0 102167
05:00+9nnw238679 0.0 102250
08:00+13n4679100 0.0 1022653
11:00+15n4570100 0.0 1022809
14:00+16n5566100 0.0 1023838
17:00+15n5671100 0.0 1023689
20:00+14nne4679100 0.0 1022516
24 june, thu
thu2423:00+11nne378192 0.0 1023146
02:00+10nne348534 0.0 102278
05:00+10nne33875 0.0 102252
08:00+14nne35777 0.0 1021401
11:00+17nne44696 0.0 1021746
14:00+18nne436748 0.0 10201023
17:00+17nne4366100 0.0 1019684
20:00+15n3576100 0.0 1019269
25 june, fri
fri2523:00+11n3386100 0.0 101848
02:00+10nne129075 0.0 101825
05:00+10nnw1190100 0.0 101725
08:00+14nw128266 0.0 1017228
11:00+17nnw22675 0.0 1017804
14:00+19nnw32645 0.0 10171010
17:00+18n43650 0.0 1017790
20:00+16n34800 0.0 1017264